START_TIME,STEP,MOV.,M34,t_acc.,L5,t_acc.,L18,t_acc.,L14,t_acc.
1979-08-07 03:00:23.220 ,1,0,0.,12.0,0.,12.0,0.,12.0,0.,12.0
1979-08-07 03:00:35.220 ,1,0,0.,12.0,0.,12.0,0.,12.0,0.,12.0
1979-08-07 03:00:47.220 ,0,0,0.,12.0,0.,12.0,0.,12.0,0.,12.0
1979-08-07 03:00:59.220 ,0,0,0.,12.0,0.,12.0,0.,12.0,0.,12.0
1979-08-07 03:01:11.220 ,0,0,,0,,0,,0,,0
1979-08-07 03:01:23.220 ,0,0,0.,12.0,0.,12.0,0.,12.0,0.,12.0
1979-08-07 03:01:35.220 ,3,1,0.,12.0,0.,12.0,0.,12.0,0.,12.0
1979-08-07 03:01:47.220 ,3,1,0.,12.0,0.,12.0,0.,12.0,0.,12.0
1979-08-07 03:01:59.220 ,3,0,0.,12.0,0.,12.0,0.,12.0,0.,12.0
1979-08-07 03:02:11.220 ,3,0,0.,12.0,0.,12.0,0.,12.0,0.,12.0
1979-08-07 03:02:23.220 ,4,1,0.,12.0,0.,12.0,0.,12.0,0.,12.0
1979-08-07 03:02:35.220 ,4,1,0.,12.0,0.,12.0,0.,12.0,0.,12.0
1979-08-07 03:02:47.220 ,4,0,0.,12.0,0.,12.0,0.,12.0,0.,12.0
1979-08-07 03:02:59.220 ,4,0,0.,12.0,0.,12.0,0.,12.0,0.,12.0
1979-08-07 03:03:11.220 ,5,1,0.,12.0,0.,12.0,0.,12.0,0.,12.0
1979-08-07 03:03:23.220 ,5,1,0.,12.0,0.,12.0,0.,12.0,0.,12.0
1979-08-07 03:03:35.220 ,5,0,0.,12.0,0.,12.0,0.,12.0,0.,12.0
1979-08-07 03:03:47.220 ,5,0,0.,12.0,0.,12.0,0.,12.0,0.,12.0
1979-08-07 03:03:59.220 ,6,1,0.,12.0,0.,12.0,0.,12.0,1.,12.0
1979-08-07 03:04:11.220 ,6,1,0.,12.0,0.,12.0,0.,12.0,0.,12.0
1979-08-07 03:04:23.220 ,6,0,0.,12.0,0.,12.0,0.,12.0,0.,12.0
1979-08-07 03:04:35.220 ,6,0,0.,12.0,0.,12.0,0.,12.0,0.,12.0
1979-08-07 03:04:47.220 ,7,1,0.,12.0,0.,12.0,0.,12.0,0.,12.0
1979-08-07 03:04:59.220 ,7,1,0.,12.0,0.,12.0,0.,12.0,0.,12.0
1979-08-07 03:05:11.220 ,7,0,0.,12.0,0.,12.0,0.,12.0,0.,12.0
1979-08-07 03:05:23.220 ,7,0,0.,12.0,0.,12.0,0.,12.0,0.,12.0
1979-08-07 03:05:35.220 ,7,1,0.,12.0,0.,12.0,0.,12.0,0.,12.0
1979-08-07 03:05:47.220 ,7,1,0.,12.0,0.,12.0,0.,12.0,0.,12.0
1979-08-07 03:05:59.220 ,7,0,0.,12.0,0.,12.0,0.,12.0,0.,12.0
1979-08-07 03:06:11.220 ,7,0,0.,12.0,0.,12.0,0.,12.0,0.,12.0
1979-08-07 03:06:23.220 ,6,1,0.,12.0,0.,12.0,0.,12.0,0.,12.0
1979-08-07 03:06:35.220 ,6,1,0.,12.0,0.,12.0,0.,12.0,0.,12.0
1979-08-07 03:06:47.220 ,6,0,0.,12.0,0.,12.0,0.,12.0,0.,12.0
1979-08-07 03:06:59.220 ,6,0,0.,12.0,0.,12.0,0.,12.0,0.,12.0
1979-08-07 03:07:11.220 ,5,1,0.,12.0,0.,12.0,0.,12.0,0.,12.0
1979-08-07 03:07:23.220 ,5,1,0.,12.0,0.,12.0,0.,12.0,0.,12.0
1979-08-07 03:07:35.220 ,5,0,0.,12.0,0.,12.0,0.,12.0,0.,12.0
1979-08-07 03:07:47.220 ,5,0,0.,12.0,0.,12.0,0.,12.0,0.,12.0
1979-08-07 03:07:59.220 ,4,1,0.,12.0,0.,12.0,0.,12.0,0.,12.0
1979-08-07 03:08:11.220 ,4,1,0.,12.0,0.,12.0,0.,12.0,0.,12.0
1979-08-07 03:08:23.220 ,4,0,0.,12.0,0.,12.0,0.,12.0,0.,12.0
1979-08-07 03:08:35.220 ,4,0,0.,12.0,0.,12.0,0.,12.0,0.,12.0
1979-08-07 03:08:47.220 ,3,1,0.,12.0,0.,12.0,0.,12.0,0.,12.0
1979-08-07 03:08:59.220 ,3,1,0.,12.0,0.,12.0,0.,12.0,0.,12.0
1979-08-07 03:09:11.220 ,3,0,0.,12.0,0.,12.0,0.,12.0,0.,12.0
1979-08-07 03:09:23.220 ,3,0,0.,12.0,0.,12.0,0.,12.0,0.,12.0
1979-08-07 03:09:35.220 ,2,1,0.,12.0,0.,12.0,0.,12.0,0.,12.0
1979-08-07 03:09:47.220 ,2,1,0.,12.0,0.,12.0,0.,12.0,0.,12.0
1979-08-07 03:09:59.220 ,2,0,,0,,0,,0,,0
1979-08-07 03:10:11.220 ,2,0,0.,12.0,0.,12.0,0.,12.0,0.,12.0
1979-08-07 03:10:23.220 ,1,1,0.,12.0,0.,12.0,0.,12.0,0.,12.0
1979-08-07 03:10:35.220 ,1,1,0.,12.0,0.,12.0,0.,12.0,0.,12.0
1979-08-07 03:10:47.220 ,1,0,0.,12.0,0.,12.0,0.,12.0,0.,12.0
1979-08-07 03:10:59.220 ,1,0,0.,12.0,0.,12.0,0.,12.0,0.,12.0
1979-08-07 03:11:11.220 ,0,1,0.,12.0,0.,12.0,0.,12.0,0.,12.0
1979-08-07 03:11:23.220 ,0,1,0.,12.0,0.,12.0,0.,12.0,0.,12.0
1979-08-07 03:11:35.220 ,0,0,0.,12.0,0.,12.0,0.,12.0,0.,12.0
1979-08-07 03:11:47.220 ,0,0,0.,12.0,0.,12.0,0.,12.0,0.,12.0
1979-08-07 03:11:59.220 ,0,1,0.,12.0,0.,12.0,0.,12.0,0.,12.0
1979-08-07 03:12:11.220 ,0,1,0.,12.0,0.,12.0,0.,12.0,0.,12.0
1979-08-07 03:12:23.220 ,0,0,0.,12.0,0.,12.0,0.,12.0,0.,12.0
1979-08-07 03:12:35.220 ,0,0,0.,12.0,0.,12.0,0.,12.0,0.,12.0
1979-08-07 03:12:47.220 ,1,1,0.,12.0,0.,12.0,0.,12.0,0.,12.0
1979-08-07 03:12:59.220 ,1,1,0.,12.0,0.,12.0,0.,12.0,0.,12.0
1979-08-07 03:13:11.220 ,1,0,0.,12.0,0.,12.0,0.,12.0,0.,12.0
1979-08-07 03:13:23.220 ,1,0,0.,12.0,0.,12.0,0.,12.0,0.,12.0
1979-08-07 03:13:35.220 ,2,1,0.,12.0,0.,12.0,0.,12.0,0.,12.0
1979-08-07 03:13:47.220 ,2,1,0.,12.0,0.,12.0,0.,12.0,0.,12.0
1979-08-07 03:13:59.220 ,2,0,0.,12.0,0.,12.0,0.,12.0,0.,12.0
1979-08-07 03:14:11.220 ,2,0,0.,12.0,0.,12.0,0.,12.0,0.,12.0
1979-08-07 03:14:23.220 ,3,1,0.,12.0,0.,12.0,0.,12.0,0.,12.0
1979-08-07 03:14:35.220 ,3,1,0.,12.0,0.,12.0,0.,12.0,0.,12.0
1979-08-07 03:14:47.220 ,3,0,0.,12.0,0.,12.0,0.,12.0,0.,12.0
1979-08-07 03:14:59.220 ,3,0,0.,12.0,0.,12.0,0.,12.0,0.,12.0
1979-08-07 03:15:11.220 ,4,1,0.,12.0,0.,12.0,0.,12.0,0.,12.0
1979-08-07 03:15:23.220 ,4,1,0.,12.0,0.,12.0,0.,12.0,0.,12.0
1979-08-07 03:15:35.220 ,4,0,0.,12.0,0.,12.0,0.,12.0,0.,12.0
1979-08-07 03:15:47.220 ,4,0,0.,12.0,0.,12.0,0.,12.0,0.,12.0
1979-08-07 03:15:59.220 ,0,0,0.,12.0,0.,12.0,0.,12.0,0.,12.0
1979-08-07 03:16:11.220 ,0,0,0.,12.0,0.,12.0,0.,12.0,0.,12.0
1979-08-07 03:16:23.220 ,0,0,0.,12.0,0.,12.0,0.,12.0,0.,12.0
1979-08-07 03:16:35.220 ,0,0,0.,12.0,0.,12.0,0.,12.0,0.,12.0
1979-08-07 03:16:47.220 ,6,1,0.,12.0,0.,12.0,0.,12.0,0.,12.0
1979-08-07 03:16:59.220 ,6,1,0.,12.0,0.,12.0,0.,12.0,0.,12.0
1979-08-07 03:17:11.220 ,6,0,0.,12.0,0.,12.0,0.,12.0,0.,12.0
1979-08-07 03:17:23.220 ,6,0,0.,12.0,0.,12.0,0.,12.0,0.,12.0
1979-08-07 03:17:35.220 ,7,1,0.,12.0,0.,12.0,0.,12.0,0.,12.0
1979-08-07 03:17:47.220 ,7,1,0.,12.0,0.,12.0,0.,12.0,0.,12.0
1979-08-07 03:17:59.220 ,7,0,0.,12.0,0.,12.0,0.,12.0,0.,12.0
1979-08-07 03:18:11.220 ,7,0,0.,12.0,0.,12.0,0.,12.0,0.,12.0
1979-08-07 03:18:23.220 ,7,1,0.,12.0,0.,12.0,0.,12.0,0.,12.0
1979-08-07 03:18:35.220 ,7,1,0.,12.0,0.,12.0,0.,12.0,0.,12.0
1979-08-07 03:18:47.220 ,7,0,0.,12.0,0.,12.0,0.,12.0,0.,12.0
1979-08-07 03:18:59.220 ,7,0,0.,12.0,0.,12.0,0.,12.0,0.,12.0
1979-08-07 03:19:11.220 ,6,1,0.,12.0,0.,12.0,0.,12.0,0.,12.0
1979-08-07 03:19:23.220 ,6,1,0.,12.0,0.,12.0,0.,12.0,0.,12.0
1979-08-07 03:19:35.220 ,6,0,0.,12.0,0.,12.0,0.,12.0,0.,12.0
1979-08-07 03:19:47.220 ,6,0,0.,12.0,0.,12.0,0.,12.0,0.,12.0
1979-08-07 03:19:59.220 ,5,1,0.,12.0,0.,12.0,0.,12.0,0.,12.0
1979-08-07 03:20:11.220 ,5,1,0.,12.0,0.,12.0,0.,12.0,0.,12.0
1979-08-07 03:20:23.220 ,5,0,0.,12.0,0.,12.0,0.,12.0,0.,12.0
1979-08-07 03:20:35.220 ,5,0,0.,12.0,0.,12.0,0.,12.0,0.,12.0
1979-08-07 03:20:47.220 ,4,1,0.,12.0,0.,12.0,0.,12.0,0.,12.0
1979-08-07 03:20:59.220 ,4,1,0.,12.0,0.,12.0,0.,12.0,0.,12.0
1979-08-07 03:21:11.220 ,4,0,0.,12.0,0.,12.0,0.,12.0,0.,12.0
1979-08-07 03:21:23.220 ,4,0,0.,12.0,0.,12.0,0.,12.0,0.,12.0
1979-08-07 03:21:35.220 ,3,1,0.,12.0,0.,12.0,0.,12.0,0.,12.0
1979-08-07 03:21:47.220 ,3,1,0.,12.0,0.,12.0,0.,12.0,0.,12.0
1979-08-07 03:21:59.220 ,3,0,0.,12.0,0.,12.0,0.,12.0,0.,12.0
1979-08-07 03:22:11.220 ,3,0,0.,12.0,0.,12.0,0.,12.0,0.,12.0
1979-08-07 03:22:23.220 ,2,1,0.,12.0,0.,12.0,0.,12.0,0.,12.0
1979-08-07 03:22:35.220 ,2,1,0.,12.0,0.,12.0,0.,12.0,0.,12.0
1979-08-07 03:22:47.220 ,0,0,0.,12.0,0.,12.0,0.,12.0,0.,12.0
1979-08-07 03:22:59.220 ,0,0,0.,12.0,0.,12.0,0.,12.0,0.,12.0
1979-08-07 03:23:11.220 ,1,1,0.,12.0,0.,12.0,0.,12.0,0.,12.0
1979-08-07 03:23:23.220 ,1,1,0.,12.0,0.,12.0,0.,12.0,0.,12.0
1979-08-07 03:23:35.220 ,1,0,0.,12.0,0.,12.0,0.,12.0,0.,12.0
1979-08-07 03:23:47.220 ,1,0,0.,12.0,0.,12.0,0.,12.0,0.,12.0
1979-08-07 03:23:59.220 ,0,1,0.,12.0,0.,12.0,0.,12.0,0.,12.0
1979-08-07 03:24:11.220 ,0,1,0.,12.0,0.,12.0,0.,12.0,0.,12.0
1979-08-07 03:24:23.220 ,0,0,0.,12.0,0.,12.0,0.,12.0,0.,12.0
1979-08-07 03:24:35.220 ,0,0,0.,12.0,0.,12.0,0.,12.0,0.,12.0
1979-08-07 03:24:47.220 ,0,1,0.,12.0,0.,12.0,0.,12.0,0.,12.0
1979-08-07 03:24:59.220 ,0,1,0.,12.0,0.,12.0,0.,12.0,0.,12.0
1979-08-07 03:25:11.220 ,0,0,0.,12.0,0.,12.0,0.,12.0,0.,12.0
1979-08-07 03:25:23.220 ,0,0,0.,12.0,0.,12.0,0.,12.0,0.,12.0
1979-08-07 03:25:35.220 ,1,1,0.,12.0,0.,12.0,0.,12.0,0.,12.0
1979-08-07 03:25:47.220 ,1,1,0.,12.0,0.,12.0,0.,12.0,0.,12.0
1979-08-07 03:25:59.220 ,1,0,0.,12.0,0.,12.0,0.,12.0,0.,12.0
1979-08-07 03:26:11.220 ,1,0,0.,12.0,0.,12.0,0.,12.0,0.,12.0
1979-08-07 03:26:23.220 ,2,1,0.,12.0,0.,12.0,0.,12.0,0.,12.0
1979-08-07 03:26:35.220 ,2,1,0.,12.0,0.,12.0,0.,12.0,0.,12.0
1979-08-07 03:26:47.220 ,2,0,0.,12.0,0.,12.0,0.,12.0,0.,12.0
1979-08-07 03:26:59.220 ,2,0,0.,12.0,0.,12.0,0.,12.0,0.,12.0
1979-08-07 03:27:11.220 ,3,1,0.,12.0,0.,12.0,0.,12.0,0.,12.0
1979-08-07 03:27:23.220 ,3,1,0.,12.0,0.,12.0,0.,12.0,0.,12.0
1979-08-07 03:27:35.220 ,3,0,0.,12.0,0.,12.0,0.,12.0,0.,12.0
1979-08-07 03:27:47.220 ,3,0,0.,12.0,0.,12.0,0.,12.0,0.,12.0
1979-08-07 03:27:59.220 ,4,1,0.,12.0,0.,12.0,0.,12.0,0.,12.0
1979-08-07 03:28:11.220 ,4,1,0.,12.0,0.,12.0,0.,12.0,0.,12.0
1979-08-07 03:28:23.220 ,4,0,0.,12.0,0.,12.0,0.,12.0,0.,12.0
1979-08-07 03:28:35.220 ,4,0,0.,12.0,0.,12.0,0.,12.0,0.,12.0
1979-08-07 03:28:47.220 ,5,1,0.,12.0,0.,12.0,0.,12.0,0.,12.0
1979-08-07 03:28:59.220 ,5,1,0.,12.0,0.,12.0,0.,12.0,0.,12.0
1979-08-07 03:29:11.220 ,5,0,0.,12.0,0.,12.0,0.,12.0,0.,12.0
1979-08-07 03:29:23.220 ,5,0,0.,12.0,0.,12.0,0.,12.0,0.,12.0
1979-08-07 03:29:35.220 ,6,1,0.,12.0,0.,12.0,0.,12.0,0.,12.0
1979-08-07 03:29:47.220 ,6,1,0.,12.0,0.,12.0,0.,12.0,0.,12.0
1979-08-07 03:29:59.220 ,6,0,,0,,0,,0,,0
1979-08-07 03:30:11.220 ,6,0,0.,12.0,0.,12.0,0.,12.0,0.,12.0
1979-08-07 03:30:23.220 ,7,0,0.,12.0,0.,12.0,0.,12.0,0.,12.0
1979-08-07 03:30:35.220 ,7,0,0.,12.0,0.,12.0,0.,12.0,0.,12.0
1979-08-07 03:30:47.220 ,7,0,0.,12.0,0.,12.0,0.,12.0,0.,12.0
1979-08-07 03:30:59.220 ,7,0,0.,12.0,0.,12.0,0.,12.0,0.,12.0
1979-08-07 03:31:11.220 ,4,1,0.,12.0,0.,12.0,0.,12.0,0.,12.0
1979-08-07 03:31:23.220 ,4,1,0.,12.0,0.,12.0,0.,12.0,0.,12.0
1979-08-07 03:31:35.220 ,0,1,0.,12.0,0.,12.0,0.,12.0,0.,12.0
1979-08-07 03:31:47.220 ,0,1,0.,12.0,0.,12.0,0.,12.0,0.,12.0
1979-08-07 03:31:59.220 ,3,1,0.,12.0,0.,12.0,0.,12.0,0.,12.0
1979-08-07 03:32:11.220 ,3,1,0.,12.0,0.,12.0,0.,12.0,0.,12.0
1979-08-07 03:32:23.220 ,7,1,0.,12.0,0.,12.0,0.,12.0,0.,12.0
1979-08-07 03:32:35.220 ,7,1,0.,12.0,0.,12.0,0.,12.0,0.,12.0
1979-08-07 03:32:47.220 ,4,1,0.,12.0,0.,12.0,0.,12.0,0.,12.0
1979-08-07 03:32:59.220 ,4,1,0.,12.0,0.,12.0,0.,12.0,0.,12.0
1979-08-07 03:33:11.220 ,0,1,0.,12.0,0.,12.0,0.,12.0,0.,12.0
1979-08-07 03:33:23.220 ,0,1,0.,12.0,0.,12.0,0.,12.0,0.,12.0
1979-08-07 03:33:35.220 ,3,1,0.,12.0,0.,12.0,0.,12.0,0.,12.0
1979-08-07 03:33:47.220 ,3,1,0.,12.0,0.,12.0,0.,12.0,0.,12.0
1979-08-07 03:33:59.220 ,7,1,0.,12.0,0.,12.0,0.,12.0,0.,12.0
1979-08-07 03:34:11.220 ,7,1,0.,12.0,0.,12.0,0.,12.0,0.,12.0
1979-08-07 03:34:23.220 ,4,1,0.,12.0,0.,12.0,0.,12.0,0.,12.0
1979-08-07 03:34:35.220 ,4,1,0.,12.0,0.,12.0,0.,12.0,0.,12.0
1979-08-07 03:34:47.220 ,0,1,0.,12.0,0.,12.0,0.,12.0,0.,12.0
1979-08-07 03:34:59.220 ,0,1,0.,12.0,0.,12.0,0.,12.0,0.,12.0
1979-08-07 03:35:11.220 ,3,1,0.,12.0,0.,12.0,0.,12.0,0.,12.0
1979-08-07 03:35:23.220 ,3,1,0.,12.0,0.,12.0,0.,12.0,0.,12.0
1979-08-07 03:35:35.220 ,7,1,0.,12.0,0.,12.0,0.,12.0,0.,12.0
1979-08-07 03:35:47.220 ,7,1,0.,12.0,0.,12.0,0.,12.0,0.,12.0
1979-08-07 03:35:59.220 ,4,1,0.,12.0,0.,12.0,0.,12.0,0.,12.0
1979-08-07 03:36:11.220 ,4,1,0.,12.0,0.,12.0,0.,12.0,0.,12.0
1979-08-07 03:36:23.220 ,0,1,0.,12.0,0.,12.0,0.,12.0,0.,12.0
1979-08-07 03:36:35.220 ,0,1,0.,12.0,0.,12.0,0.,12.0,0.,12.0
1979-08-07 03:36:47.220 ,3,1,0.,12.0,0.,12.0,0.,12.0,0.,12.0
1979-08-07 03:36:59.220 ,3,1,0.,12.0,0.,12.0,0.,12.0,0.,12.0
1979-08-07 03:37:11.220 ,7,1,0.,12.0,0.,12.0,0.,12.0,0.,12.0
1979-08-07 03:37:23.220 ,7,1,0.,12.0,0.,12.0,0.,12.0,0.,12.0
1979-08-07 03:37:35.220 ,4,1,0.,12.0,0.,12.0,0.,12.0,0.,12.0
1979-08-07 03:37:47.220 ,4,1,0.,12.0,0.,12.0,0.,12.0,0.,12.0
1979-08-07 03:37:59.220 ,0,1,0.,12.0,0.,12.0,0.,12.0,0.,12.0
1979-08-07 03:38:11.220 ,0,1,0.,12.0,0.,12.0,0.,12.0,0.,12.0
1979-08-07 03:38:23.220 ,3,1,0.,12.0,0.,12.0,0.,12.0,0.,12.0
1979-08-07 03:38:35.220 ,3,1,0.,12.0,0.,12.0,0.,12.0,0.,12.0
1979-08-07 03:38:47.220 ,7,1,0.,12.0,0.,12.0,0.,12.0,0.,12.0
1979-08-07 03:38:59.220 ,7,1,0.,12.0,0.,12.0,0.,12.0,0.,12.0
1979-08-07 03:39:11.220 ,4,1,0.,12.0,0.,12.0,0.,12.0,0.,12.0
1979-08-07 03:39:23.220 ,4,1,0.,12.0,0.,12.0,0.,12.0,0.,12.0
1979-08-07 03:39:35.220 ,0,1,0.,12.0,0.,12.0,0.,12.0,0.,12.0
1979-08-07 03:39:47.220 ,0,1,0.,12.0,0.,12.0,0.,12.0,0.,12.0
1979-08-07 03:39:59.220 ,3,1,0.,12.0,0.,12.0,0.,12.0,0.,12.0
1979-08-07 03:40:11.220 ,3,1,0.,12.0,0.,12.0,0.,12.0,0.,12.0
1979-08-07 03:40:23.220 ,7,1,0.,12.0,0.,12.0,0.,12.0,0.,12.0
1979-08-07 03:40:35.220 ,7,1,0.,12.0,0.,12.0,0.,12.0,0.,12.0
1979-08-07 03:40:47.220 ,4,1,0.,12.0,0.,12.0,0.,12.0,0.,12.0
1979-08-07 03:40:59.220 ,4,1,0.,12.0,0.,12.0,0.,12.0,0.,12.0
1979-08-07 03:41:11.220 ,0,1,0.,12.0,0.,12.0,0.,12.0,0.,12.0
1979-08-07 03:41:23.220 ,0,1,0.,12.0,0.,12.0,0.,12.0,0.,12.0
1979-08-07 03:41:35.220 ,0,0,0.,12.0,0.,12.0,0.,12.0,0.,12.0
1979-08-07 03:41:47.220 ,0,0,0.,12.0,0.,12.0,0.,12.0,0.,12.0
1979-08-07 03:41:59.220 ,0,0,0.,12.0,0.,12.0,0.,12.0,0.,12.0
1979-08-07 03:42:11.220 ,0,0,0.,12.0,0.,12.0,0.,12.0,0.,12.0
1979-08-07 03:42:23.220 ,5,1,0.,12.0,0.,12.0,0.,12.0,0.,12.0
1979-08-07 03:42:35.220 ,5,1,0.,12.0,0.,12.0,0.,12.0,0.,12.0
1979-08-07 03:42:47.220 ,5,0,0.,12.0,0.,12.0,0.,12.0,0.,12.0
1979-08-07 03:42:59.220 ,5,0,0.,12.0,0.,12.0,0.,12.0,0.,12.0
1979-08-07 03:43:11.220 ,4,1,0.,12.0,0.,12.0,0.,12.0,0.,12.0
1979-08-07 03:43:23.220 ,4,1,0.,12.0,0.,12.0,0.,12.0,0.,12.0
1979-08-07 03:43:35.220 ,4,0,0.,12.0,0.,12.0,0.,12.0,0.,12.0
1979-08-07 03:43:47.220 ,4,0,0.,12.0,0.,12.0,0.,12.0,0.,12.0
1979-08-07 03:43:59.220 ,4,0,0.,12.0,0.,12.0,0.,12.0,0.,12.0
1979-08-07 03:44:11.220 ,4,0,,0,,0,,0,,0
1979-08-07 03:44:23.220 ,3,0,0.,12.0,0.,12.0,0.,12.0,0.,12.0
1979-08-07 03:44:35.220 ,3,0,0.,12.0,0.,12.0,0.,12.0,0.,12.0
1979-08-07 03:44:47.220 ,2,1,0.,12.0,0.,12.0,0.,12.0,0.,12.0
1979-08-07 03:44:59.220 ,2,1,0.,12.0,0.,12.0,0.,12.0,0.,12.0
1979-08-07 03:45:11.220 ,2,0,0.,12.0,0.,12.0,0.,12.0,0.,12.0
1979-08-07 03:45:23.220 ,2,0,0.,12.0,0.,12.0,0.,12.0,0.,12.0
1979-08-07 03:45:35.220 ,1,1,0.,12.0,0.,12.0,1.,12.0,0.,12.0
1979-08-07 03:45:47.220 ,1,1,0.,12.0,0.,12.0,0.,12.0,0.,12.0
1979-08-07 03:45:59.220 ,1,0,0.,12.0,0.,12.0,0.,12.0,0.,12.0
1979-08-07 03:46:11.220 ,1,0,0.,12.0,0.,12.0,0.,12.0,0.,12.0
1979-08-07 03:46:23.220 ,0,1,0.,12.0,0.,12.0,0.,12.0,0.,12.0
1979-08-07 03:46:35.220 ,0,1,0.,12.0,0.,12.0,0.,12.0,0.,12.0
1979-08-07 03:46:47.220 ,0,0,0.,12.0,0.,12.0,0.,12.0,0.,12.0
1979-08-07 03:46:59.220 ,0,0,1.,12.0,0.,12.0,0.,12.0,0.,12.0
1979-08-07 03:47:11.220 ,0,1,0.,12.0,0.,12.0,0.,12.0,0.,12.0
1979-08-07 03:47:23.220 ,0,1,0.,12.0,0.,12.0,0.,12.0,0.,12.0
1979-08-07 03:47:35.220 ,0,0,0.,12.0,0.,12.0,0.,12.0,0.,12.0
1979-08-07 03:47:47.220 ,0,0,0.,12.0,0.,12.0,0.,12.0,0.,12.0
1979-08-07 03:47:59.220 ,1,1,0.,12.0,0.,12.0,0.,12.0,0.,12.0
1979-08-07 03:48:11.220 ,1,1,0.,12.0,0.,12.0,0.,12.0,0.,12.0
1979-08-07 03:48:23.220 ,1,0,0.,12.0,0.,12.0,0.,12.0,0.,12.0
1979-08-07 03:48:35.220 ,1,0,0.,12.0,0.,12.0,0.,12.0,0.,12.0
1979-08-07 03:48:47.220 ,2,1,0.,12.0,0.,12.0,0.,12.0,0.,12.0
1979-08-07 03:48:59.220 ,2,1,0.,12.0,0.,12.0,0.,12.0,0.,12.0
1979-08-07 03:49:11.220 ,2,0,0.,12.0,0.,12.0,0.,12.0,0.,12.0
1979-08-07 03:49:23.220 ,2,0,0.,12.0,0.,12.0,0.,12.0,0.,12.0
1979-08-07 03:49:35.220 ,3,1,0.,12.0,0.,12.0,0.,12.0,0.,12.0
1979-08-07 03:49:47.220 ,3,1,0.,12.0,0.,12.0,0.,12.0,0.,12.0
1979-08-07 03:49:59.220 ,3,0,0.,12.0,0.,12.0,0.,12.0,0.,12.0
1979-08-07 03:50:11.220 ,3,0,0.,12.0,0.,12.0,0.,12.0,0.,12.0
1979-08-07 03:50:23.220 ,4,1,0.,12.0,0.,12.0,0.,12.0,0.,12.0
1979-08-07 03:50:35.220 ,4,1,0.,12.0,0.,12.0,0.,12.0,0.,12.0
1979-08-07 03:50:47.220 ,4,0,0.,12.0,0.,12.0,0.,12.0,0.,12.0
1979-08-07 03:50:59.220 ,4,0,0.,12.0,0.,12.0,0.,12.0,0.,12.0
1979-08-07 03:51:11.220 ,5,1,0.,12.0,0.,12.0,0.,12.0,0.,12.0
1979-08-07 03:51:23.220 ,5,1,0.,12.0,0.,12.0,0.,12.0,0.,12.0
1979-08-07 03:51:35.220 ,5,0,0.,12.0,0.,12.0,0.,12.0,0.,12.0
1979-08-07 03:51:47.220 ,5,0,0.,12.0,0.,12.0,0.,12.0,0.,12.0
1979-08-07 03:51:59.220 ,6,1,0.,12.0,0.,12.0,0.,12.0,0.,12.0
1979-08-07 03:52:11.220 ,6,1,0.,12.0,0.,12.0,0.,12.0,0.,12.0
1979-08-07 03:52:23.220 ,6,0,0.,12.0,0.,12.0,0.,12.0,0.,12.0
1979-08-07 03:52:35.220 ,6,0,0.,12.0,0.,12.0,0.,12.0,0.,12.0
1979-08-07 03:52:47.220 ,7,1,0.,12.0,0.,12.0,0.,12.0,0.,12.0
1979-08-07 03:52:59.220 ,7,1,0.,12.0,0.,12.0,0.,12.0,0.,12.0
1979-08-07 03:53:11.220 ,7,0,0.,12.0,0.,12.0,0.,12.0,0.,12.0
1979-08-07 03:53:23.220 ,7,0,0.,12.0,0.,12.0,0.,12.0,0.,12.0
1979-08-07 03:53:35.220 ,7,1,0.,12.0,0.,12.0,0.,12.0,0.,12.0
1979-08-07 03:53:47.220 ,7,1,0.,12.0,0.,12.0,0.,12.0,0.,12.0
1979-08-07 03:53:59.220 ,7,0,0.,12.0,0.,12.0,0.,12.0,0.,12.0
1979-08-07 03:54:11.220 ,7,0,0.,12.0,0.,12.0,0.,12.0,0.,12.0
1979-08-07 03:54:23.220 ,6,1,0.,12.0,0.,12.0,0.,12.0,0.,12.0
1979-08-07 03:54:35.220 ,6,1,0.,12.0,0.,12.0,0.,12.0,0.,12.0
1979-08-07 03:54:47.220 ,6,0,0.,12.0,0.,12.0,0.,12.0,0.,12.0
1979-08-07 03:54:59.220 ,6,0,0.,12.0,0.,12.0,0.,12.0,0.,12.0
1979-08-07 03:55:11.220 ,5,1,0.,12.0,0.,12.0,0.,12.0,0.,12.0
1979-08-07 03:55:23.220 ,5,1,0.,12.0,0.,12.0,0.,12.0,0.,12.0
1979-08-07 03:55:35.220 ,5,0,0.,12.0,0.,12.0,0.,12.0,0.,12.0
1979-08-07 03:55:47.220 ,5,0,0.,12.0,0.,12.0,0.,12.0,0.,12.0
1979-08-07 03:55:59.220 ,4,1,0.,12.0,0.,12.0,0.,12.0,0.,12.0
1979-08-07 03:56:11.220 ,4,1,0.,12.0,0.,12.0,0.,12.0,0.,12.0
1979-08-07 03:56:23.220 ,4,0,0.,12.0,0.,12.0,0.,12.0,0.,12.0
1979-08-07 03:56:35.220 ,4,0,0.,12.0,0.,12.0,0.,12.0,0.,12.0
1979-08-07 03:56:47.220 ,3,1,0.,12.0,0.,12.0,0.,12.0,0.,12.0
1979-08-07 03:56:59.220 ,3,1,0.,12.0,0.,12.0,0.,12.0,0.,12.0
1979-08-07 03:57:11.220 ,3,0,0.,12.0,0.,12.0,0.,12.0,0.,12.0
1979-08-07 03:57:23.220 ,3,0,0.,12.0,0.,12.0,0.,12.0,0.,12.0
1979-08-07 03:57:35.220 ,2,1,0.,12.0,0.,12.0,0.,12.0,0.,12.0
1979-08-07 03:57:47.220 ,2,1,0.,12.0,0.,12.0,0.,12.0,0.,12.0
1979-08-07 03:57:59.220 ,2,0,0.,12.0,0.,12.0,0.,12.0,0.,12.0
1979-08-07 03:58:11.220 ,2,0,0.,12.0,0.,12.0,0.,12.0,0.,12.0
1979-08-07 03:58:23.220 ,1,1,0.,12.0,0.,12.0,0.,12.0,0.,12.0
1979-08-07 03:58:35.220 ,1,1,0.,12.0,0.,12.0,0.,12.0,0.,12.0
1979-08-07 03:58:47.220 ,1,0,0.,12.0,0.,12.0,0.,12.0,0.,12.0
1979-08-07 03:58:59.220 ,1,0,0.,12.0,0.,12.0,0.,12.0,0.,12.0
1979-08-07 03:59:11.220 ,0,1,0.,12.0,0.,12.0,0.,12.0,0.,12.0
1979-08-07 03:59:23.220 ,0,1,0.,12.0,0.,12.0,0.,12.0,0.,12.0
1979-08-07 03:59:35.220 ,0,0,0.,12.0,0.,12.0,0.,12.0,0.,12.0
1979-08-07 03:59:47.220 ,0,0,0.,12.0,0.,12.0,0.,12.0,0.,12.0
1979-08-07 03:59:59.220 ,0,1,0.,12.0,0.,12.0,0.,12.0,0.,12.0
1979-08-07 04:00:11.220 ,0,1,0.,12.0,0.,12.0,0.,12.0,0.,12.0
1979-08-07 04:00:23.220 ,0,0,0.,12.0,0.,12.0,0.,12.0,0.,12.0
1979-08-07 04:00:35.220 ,0,0,0.,12.0,0.,12.0,0.,12.0,0.,12.0
1979-08-07 04:00:47.220 ,1,1,0.,12.0,0.,12.0,0.,12.0,0.,12.0
1979-08-07 04:00:59.220 ,1,1,0.,12.0,0.,12.0,0.,12.0,0.,12.0
1979-08-07 04:01:11.220 ,1,0,0.,12.0,0.,12.0,0.,12.0,0.,12.0
1979-08-07 04:01:23.220 ,1,0,0.,12.0,0.,12.0,0.,12.0,0.,12.0
1979-08-07 04:01:35.220 ,2,1,0.,12.0,0.,12.0,0.,12.0,0.,12.0
1979-08-07 04:01:47.220 ,2,1,0.,12.0,0.,12.0,0.,12.0,0.,12.0
1979-08-07 04:01:59.220 ,2,0,0.,12.0,0.,12.0,0.,12.0,0.,12.0
1979-08-07 04:02:11.220 ,2,0,0.,12.0,0.,12.0,0.,12.0,0.,12.0
1979-08-07 04:02:23.220 ,3,1,0.,12.0,0.,12.0,0.,12.0,0.,12.0
1979-08-07 04:02:35.220 ,3,1,0.,12.0,0.,12.0,0.,12.0,0.,12.0
1979-08-07 04:02:47.220 ,3,0,0.,12.0,0.,12.0,0.,12.0,0.,12.0
1979-08-07 04:02:59.220 ,3,0,0.,12.0,0.,12.0,0.,12.0,0.,12.0
1979-08-07 04:03:11.220 ,4,1,0.,12.0,0.,12.0,0.,12.0,0.,12.0
1979-08-07 04:03:23.220 ,4,1,0.,12.0,0.,12.0,0.,12.0,0.,12.0
1979-08-07 04:03:35.220 ,4,0,0.,12.0,0.,12.0,0.,12.0,0.,12.0
1979-08-07 04:03:47.220 ,4,0,0.,12.0,0.,12.0,0.,12.0,0.,12.0
1979-08-07 04:03:59.220 ,5,1,0.,12.0,0.,12.0,0.,12.0,0.,12.0
1979-08-07 04:04:11.220 ,5,1,0.,12.0,0.,12.0,0.,12.0,0.,12.0
1979-08-07 04:04:23.220 ,0,0,0.,12.0,0.,12.0,0.,12.0,0.,12.0
1979-08-07 04:04:35.220 ,0,0,0.,12.0,0.,12.0,0.,12.0,0.,12.0
1979-08-07 04:04:47.220 ,6,1,0.,12.0,0.,12.0,0.,12.0,0.,12.0
1979-08-07 04:04:59.220 ,6,1,0.,12.0,0.,12.0,0.,12.0,0.,12.0
1979-08-07 04:05:11.220 ,6,0,0.,12.0,0.,12.0,0.,12.0,0.,12.0
1979-08-07 04:05:23.220 ,6,0,0.,12.0,0.,12.0,0.,12.0,0.,12.0
1979-08-07 04:05:35.220 ,7,1,0.,12.0,0.,12.0,0.,12.0,0.,12.0
1979-08-07 04:05:47.220 ,7,1,0.,12.0,0.,12.0,0.,12.0,0.,12.0
1979-08-07 04:05:59.220 ,7,0,0.,12.0,0.,12.0,0.,12.0,0.,12.0
1979-08-07 04:06:11.220 ,7,0,0.,12.0,0.,12.0,0.,12.0,0.,12.0
1979-08-07 04:06:23.220 ,0,0,0.,12.0,0.,12.0,0.,12.0,0.,12.0
1979-08-07 04:06:35.220 ,0,0,0.,12.0,0.,12.0,0.,12.0,0.,12.0
1979-08-07 04:06:47.220 ,0,0,0.,12.0,0.,12.0,0.,12.0,0.,12.0
1979-08-07 04:06:59.220 ,0,0,0.,12.0,0.,12.0,0.,12.0,0.,12.0
1979-08-07 04:07:11.220 ,6,1,0.,12.0,0.,12.0,0.,12.0,0.,12.0
1979-08-07 04:07:23.220 ,6,1,0.,12.0,0.,12.0,0.,12.0,0.,12.0
1979-08-07 04:07:35.220 ,6,0,0.,12.0,0.,12.0,0.,12.0,0.,12.0
1979-08-07 04:07:47.220 ,6,0,0.,12.0,0.,12.0,0.,12.0,0.,12.0
1979-08-07 04:07:59.220 ,5,1,0.,12.0,0.,12.0,0.,12.0,0.,12.0
1979-08-07 04:08:11.220 ,5,1,0.,12.0,0.,12.0,0.,12.0,0.,12.0
1979-08-07 04:08:23.220 ,5,0,0.,12.0,0.,12.0,0.,12.0,0.,12.0
1979-08-07 04:08:35.220 ,5,0,0.,12.0,0.,12.0,0.,12.0,0.,12.0
1979-08-07 04:08:47.220 ,4,1,0.,12.0,0.,12.0,0.,12.0,0.,12.0
1979-08-07 04:08:59.220 ,4,1,0.,12.0,0.,12.0,0.,12.0,0.,12.0
1979-08-07 04:09:11.220 ,4,0,0.,12.0,0.,12.0,0.,12.0,0.,12.0
1979-08-07 04:09:23.220 ,4,0,0.,12.0,0.,12.0,0.,12.0,0.,12.0
1979-08-07 04:09:35.220 ,3,1,0.,12.0,0.,12.0,0.,12.0,0.,12.0
1979-08-07 04:09:47.220 ,3,1,0.,12.0,0.,12.0,0.,12.0,0.,12.0
1979-08-07 04:09:59.220 ,3,0,0.,12.0,0.,12.0,0.,12.0,0.,12.0
1979-08-07 04:10:11.220 ,3,0,0.,12.0,0.,12.0,0.,12.0,0.,12.0
1979-08-07 04:10:23.220 ,2,1,0.,12.0,0.,12.0,0.,12.0,0.,12.0
1979-08-07 04:10:35.220 ,2,1,0.,12.0,0.,12.0,0.,12.0,0.,12.0
1979-08-07 04:10:47.220 ,2,0,0.,12.0,0.,12.0,0.,12.0,0.,12.0
1979-08-07 04:10:59.220 ,2,0,0.,12.0,0.,12.0,0.,12.0,0.,12.0
1979-08-07 04:11:11.220 ,0,0,0.,12.0,0.,12.0,0.,12.0,0.,12.0
1979-08-07 04:11:23.220 ,0,0,0.,12.0,0.,12.0,0.,12.0,0.,12.0
1979-08-07 04:11:35.220 ,0,0,0.,12.0,0.,12.0,0.,12.0,0.,12.0
1979-08-07 04:11:47.220 ,0,0,0.,12.0,0.,12.0,0.,12.0,0.,12.0
1979-08-07 04:11:59.220 ,0,1,0.,12.0,0.,12.0,0.,12.0,0.,12.0
1979-08-07 04:12:11.220 ,0,1,0.,12.0,0.,12.0,0.,12.0,0.,12.0
1979-08-07 04:12:23.220 ,0,0,0.,12.0,0.,12.0,0.,12.0,0.,12.0
1979-08-07 04:12:35.220 ,0,0,0.,12.0,0.,12.0,0.,12.0,0.,12.0
1979-08-07 04:12:47.220 ,0,1,0.,12.0,0.,12.0,0.,12.0,0.,12.0
1979-08-07 04:12:59.220 ,0,1,0.,12.0,0.,12.0,0.,12.0,0.,12.0
1979-08-07 04:13:11.220 ,0,0,0.,12.0,0.,12.0,0.,12.0,0.,12.0
1979-08-07 04:13:23.220 ,0,0,0.,12.0,0.,12.0,0.,12.0,0.,12.0
1979-08-07 04:14:23.220 ,0,0,0.,12.0,0.,12.0,0.,12.0,0.,12.0
1979-08-07 04:14:35.220 ,0,0,0.,12.0,0.,12.0,0.,12.0,0.,12.0
1979-08-07 04:14:47.220 ,0,0,0.,12.0,0.,12.0,0.,12.0,0.,12.0
1979-08-07 04:14:59.220 ,0,0,0.,12.0,0.,12.0,0.,12.0,0.,12.0
1979-08-07 04:15:11.220 ,3,1,0.,12.0,0.,12.0,0.,12.0,0.,12.0
1979-08-07 04:15:23.220 ,3,1,0.,12.0,0.,12.0,0.,12.0,0.,12.0
1979-08-07 04:15:35.220 ,3,0,0.,12.0,0.,12.0,0.,12.0,0.,12.0
1979-08-07 04:15:47.220 ,3,0,0.,12.0,0.,12.0,0.,12.0,0.,12.0
1979-08-07 04:15:59.220 ,4,1,0.,12.0,0.,12.0,0.,12.0,0.,12.0
1979-08-07 04:16:11.220 ,4,1,0.,12.0,0.,12.0,0.,12.0,0.,12.0
1979-08-07 04:16:23.220 ,4,0,0.,12.0,0.,12.0,0.,12.0,0.,12.0
1979-08-07 04:16:35.220 ,4,0,0.,12.0,0.,12.0,0.,12.0,0.,12.0
1979-08-07 04:16:47.220 ,5,1,0.,12.0,0.,12.0,0.,12.0,0.,12.0
1979-08-07 04:16:59.220 ,5,1,0.,12.0,0.,12.0,0.,12.0,0.,12.0
1979-08-07 04:17:11.220 ,5,0,0.,12.0,0.,12.0,0.,12.0,0.,12.0
1979-08-07 04:17:23.220 ,5,0,0.,12.0,0.,12.0,0.,12.0,0.,12.0
1979-08-07 04:17:35.220 ,6,1,0.,12.0,0.,12.0,0.,12.0,0.,12.0
1979-08-07 04:17:47.220 ,6,1,0.,12.0,0.,12.0,0.,12.0,0.,12.0
1979-08-07 04:17:59.220 ,6,0,0.,12.0,0.,12.0,0.,12.0,0.,12.0
1979-08-07 04:18:11.220 ,6,0,0.,12.0,0.,12.0,0.,12.0,0.,12.0
1979-08-07 04:18:23.220 ,7,0,0.,12.0,0.,12.0,0.,12.0,0.,12.0